Alabaster, AL

11:38 PM CST on January 16, 2018 (GMT -0600)
Shelby County

Weather History for KEET - February, 2014

Change the Weather History Date:

Sunday, February 16, 2014

  Actual Average Record
Temperature  
Mean Temperature 49 °F 49 °F  
Max Temperature 67 °F 60 °F 79 °F (2001)
Min Temperature 31 °F 38 °F 13 °F (1958)
Degree Days  
Heating Degree Days 16 16  
Month to date heating degree days 319 286  
Since 1 July heating degree days 2130 1950  
Moisture  
Dew Point 33 °F    
Average Humidity 61    
Maximum Humidity 92    
Minimum Humidity 29    
Precipitation  
Precipitation 0.00 in 0.21 in 2.50 in (1966)
Month to date precipitation 3.87 3.31  
Year to date precipitation 6.80 8.64  
Snow  
Snow 0.00 in - - ()
Month to date snowfall 0.3  
Since 1 July snowfall 1.3  
Snow Depth 0.00 in    
Sea Level Pressure  
Sea Level Pressure 30.13 in    
Wind  
Wind Speed 2 mph (West)    
Max Wind Speed 12 mph    
Max Gust Speed 16 mph    
Visibility 10 miles    
Events      
T = Trace of Precipitation, MM = Missing Value Source: NWS Daily Summary

Daily Weather History Graph

Daily Weather History Graph

Search for Another Location

Airport or City:

Trip Planner

Search our weather history database for the weather conditions in past years. The results will help you decide how hot, cold, wet, or windy it might be!

Date:

Astronomy

Feb. 16, 2014 Rise Set
Actual Time 6:29 AM CST 5:33 PM CST
Civil Twilight 6:04 AM CST 5:58 PM CST
Nautical Twilight 5:35 AM CST 6:27 PM CST
Astronomical Twilight 5:06 AM CST 6:56 PM CST
Moon 7:20 PM CST (2/16) 7:06 AM CST (2/16)
Length of Visible Light 11h 53m
Length of Day
11h 03m
Full, 97% of the Moon is Illuminated
Feb 16
Full
Feb 22
Last Quarter
Mar 1
New
Mar 8
First Quarter
Mar 16
Full

Hourly Weather History & Observations

Time (CST) Temp. Windchill Dew Point Humidity Pressure Visibility Wind Dir Wind Speed Gust Speed Precip Events Conditions
12:53 AM 33.1 °F - 30.0 °F 89% 30.13 in 9.0 mi Calm Calm - N/A   Clear
1:53 AM 32.0 °F - 30.0 °F 92% 30.13 in 9.0 mi Calm Calm - N/A   Clear
2:53 AM 32.0 °F - 30.0 °F 92% 30.13 in 8.0 mi Calm Calm - N/A   Clear
3:53 AM 30.9 °F - 28.9 °F 92% 30.12 in 9.0 mi Calm Calm - N/A   Clear
4:53 AM 30.9 °F - 28.9 °F 92% 30.12 in 8.0 mi Calm Calm - N/A   Clear
5:53 AM 30.9 °F - 28.9 °F 92% 30.12 in 8.0 mi Calm Calm - N/A   Clear
6:53 AM 30.9 °F - 28.9 °F 92% 30.14 in 7.0 mi Calm Calm - N/A   Clear
7:53 AM 39.0 °F 36.8 °F 30.9 °F 73% 30.16 in 10.0 mi SSW 3.5 mph - N/A   Clear
8:53 AM 44.1 °F 41.5 °F 32.0 °F 63% 30.16 in 10.0 mi South 4.6 mph - N/A   Clear
9:53 AM 53.1 °F - 33.1 °F 47% 30.16 in 10.0 mi WNW 5.8 mph - N/A   Clear
10:53 AM 55.9 °F - 33.1 °F 42% 30.16 in 10.0 mi Variable 3.5 mph - N/A   Clear
11:53 AM 61.0 °F - 34.0 °F 36% 30.14 in 10.0 mi WNW 4.6 mph - N/A   Clear
12:53 PM 63.0 °F - 32.0 °F 31% 30.13 in 10.0 mi Variable 4.6 mph - N/A   Clear
1:53 PM 64.9 °F - 33.1 °F 31% 30.11 in 10.0 mi WNW 5.8 mph - N/A   Clear
2:53 PM 66.0 °F - 33.1 °F 29% 30.09 in 10.0 mi Calm Calm - N/A   Clear
3:53 PM 66.0 °F - 33.1 °F 29% 30.11 in 10.0 mi West 9.2 mph - N/A   Clear
4:53 PM 64.0 °F - 33.1 °F 31% 30.12 in 10.0 mi West 6.9 mph - N/A   Clear
5:53 PM 57.0 °F - 36.0 °F 45% 30.14 in 10.0 mi Calm Calm - N/A   Clear
6:53 PM 52.0 °F - 39.9 °F 63% 30.15 in 10.0 mi Calm Calm - N/A   Clear
7:53 PM 48.9 °F - 37.9 °F 66% 30.15 in 10.0 mi Calm Calm - N/A   Clear
8:53 PM 46.0 °F - 36.0 °F 68% 30.16 in 10.0 mi Calm Calm - N/A   Clear
9:53 PM 46.0 °F - 39.9 °F 79% 30.14 in 10.0 mi Calm Calm - N/A   Clear
10:53 PM 44.1 °F - 37.9 °F 79% 30.13 in 10.0 mi Calm Calm - N/A   Clear
11:53 PM 43.0 °F - 37.9 °F 82% 30.13 in 10.0 mi Calm Calm - N/A   Clear